Change the Weather History Date:

Saturday, February 22, 2014

  Actual Average Record
Temperature  
Mean Temperature 31 °F -  
Max Temperature 36 °F 33 °F 47 °F (1970)
Min Temperature 26 °F 21 °F 5 °F (1979)
Degree Days  
Heating Degree Days 34    
Moisture  
Dew Point 25 °F    
Average Humidity 82    
Maximum Humidity 92    
Minimum Humidity 64    
Precipitation  
Precipitation 0.00 in - - ()
Sea Level Pressure  
Sea Level Pressure 30.30 in    
Wind  
Wind Speed 0 mph (NW)    
Max Wind Speed 4 mph    
Max Gust Speed -    
Visibility 8 miles    
Events Snow    
Averages and records for this station are not official NWS values.
T = Trace of Precipitation, MM = Missing Value Source: NWS Daily Summary

Daily Weather History Graph

Daily Weather History Graph

Search for Another Location

Airport or City:

Trip Planner

Search our weather history database for the weather conditions in past years. The results will help you decide how hot, cold, wet, or windy it might be!

Date:

Astronomy

Feb. 22, 2014 Rise Set
Actual Time 8:15 AM AKST 6:07 PM AKST
Civil Twilight 7:33 AM AKST 6:50 PM AKST
Nautical Twilight 6:44 AM AKST 7:38 PM AKST
Astronomical Twilight 5:56 AM AKST 8:27 PM AKST
Moon 3:03 AM AKST (2/22) 10:41 AM AKST (2/22)
Length of Visible Light 11h 17m
Length of Day
9h 51m
Waning Gibbous, 48% of the Moon is Illuminated
Feb 22
Waning Gibbous
Feb 28
New
Mar 8
First Quarter
Mar 16
Full
Mar 23
Last Quarter

Hourly Weather History & Observations

Time (AKST) Temp. Windchill Dew Point Humidity Pressure Visibility Wind Dir Wind Speed Gust Speed Precip Events Conditions
12:51 AM 28.4 °F - 24.8 °F 86% 30.33 in 2.5 mi Calm Calm - 0.00 in Snow Light Snow
12:53 AM 28.0 °F - 25.0 °F 88% 30.33 in 2.5 mi Calm Calm - 0.00 in Snow Light Snow
1:31 AM 27.0 °F - 25.0 °F 92% 30.33 in 3.0 mi Calm Calm - 0.00 in Snow Light Snow
1:42 AM 28.0 °F - 24.1 °F 85% 30.33 in 2.5 mi Calm Calm - 0.00 in Snow Light Snow
1:51 AM 28.4 °F 24.6 °F 24.8 °F 86% 30.33 in 4.0 mi WNW 3.5 mph - 0.00 in Snow Light Snow
1:53 AM 28.0 °F - 24.1 °F 85% 30.34 in 4.0 mi Calm Calm - 0.00 in Snow Light Snow
3:53 AM 27.0 °F - 24.1 °F 89% 30.33 in 4.0 mi Calm Calm - 0.00 in Snow Light Snow
4:53 AM 27.0 °F - 24.1 °F 89% 30.32 in 10.0 mi North - - 0.00 in   Overcast
5:16 AM 27.0 °F - 24.1 °F 89% 30.32 in 10.0 mi Calm Calm - N/A   Overcast
5:32 AM 27.0 °F - 24.1 °F 89% 30.32 in 10.0 mi Calm Calm - N/A   Overcast
5:53 AM 27.0 °F - 24.1 °F 89% 30.32 in 10.0 mi Calm Calm - N/A   Overcast
6:53 AM 26.1 °F - 24.1 °F 92% 30.32 in 10.0 mi Calm Calm - N/A   Overcast
7:53 AM 26.1 °F - 23.0 °F 88% 30.32 in 10.0 mi Calm Calm - N/A   Overcast
8:53 AM 27.0 °F - 25.0 °F 92% 30.32 in 10.0 mi Calm Calm - N/A   Overcast
9:53 AM 28.9 °F - 25.0 °F 85% 30.32 in 10.0 mi Calm Calm - N/A   Overcast
10:53 AM 30.9 °F - 25.0 °F 79% 30.32 in 10.0 mi Calm Calm - N/A   Overcast
11:53 AM 33.1 °F - 25.0 °F 72% 30.32 in 10.0 mi Calm Calm - N/A   Overcast
12:53 PM 34.0 °F - 25.0 °F 70% 30.32 in 10.0 mi Calm Calm - N/A   Overcast
1:53 PM 35.1 °F - 26.1 °F 70% 30.32 in 10.0 mi Calm Calm - N/A   Overcast
2:53 PM 34.0 °F - 27.0 °F 75% 30.30 in 10.0 mi Calm Calm - N/A   Overcast
3:53 PM 36.0 °F - 25.0 °F 64% 30.29 in 10.0 mi Calm Calm - N/A   Overcast
4:53 PM 35.1 °F - 25.0 °F 67% 30.28 in 10.0 mi Calm Calm - N/A   Overcast
5:53 PM 33.1 °F - 26.1 °F 75% 30.28 in 10.0 mi Calm Calm - N/A   Overcast
6:53 PM 32.0 °F 28.7 °F 24.1 °F 73% 30.27 in 10.0 mi North 3.5 mph - N/A   Overcast
7:53 PM 30.9 °F - 24.1 °F 76% 30.26 in 10.0 mi Calm Calm - N/A   Overcast
8:53 PM 30.9 °F - 24.1 °F 76% 30.25 in 10.0 mi Calm Calm - N/A   Overcast
9:53 PM 30.9 °F - 26.1 °F 82% 30.25 in 10.0 mi Calm Calm - N/A   Overcast
10:53 PM 30.0 °F - 27.0 °F 88% 30.25 in 10.0 mi Calm Calm - N/A   Overcast
11:53 PM 30.0 °F - 25.0 °F 82% 30.24 in 10.0 mi Calm Calm - N/A   Overcast